BEIDOU-3 M2 (C20)

Last updated on Jan. 22, 2021, 6:27 a.m. UTC

1 43002U 17069B   21021.73604115 -.00000023  00000-0  00000-0 0  9991
2 43002  55.2988 128.8988 0006898 312.2796 336.0659  1.86231398 21852
UTC
Height (km)
Latitude
Longitude
Inclination
Orbital Period
UTC large
Height (km)
Speed (km/s)
/
Latitude / Longitude
Inclination (degrees)
Orbital Period (minutes)
Azimuth
Elevation
Range (km)
Doppler Factor
iOS Compass Heading
iOS Angle

Next 30 passes for location: Hong Kong

Rise time Rise Azimuth (degrees) Set time Set Azimuth (degrees) Duration Max altitude (degrees)

No matching passes for this satellites